Lid_Strength_Index
4 4 4 4 3 3 3 2 2 2 1 2 1 1 1 0 0 1 1 0 1 1 0 0 -1 -1 -1 -1 -1 -1 -1 -0 -0
5 4 4 4 3 3 3 2 2 2 2 1 1 1 1 1 0 0 1 0 0 0 -0 -0 -1 -1 -1 -1 -1 -1 -1 -0 -0
5 4 4 4 3 3 2 2 2 1 1 1 1 1 1 1 1 0 0 0 1 -0 -0 -1 -0 -0 -1 -1 -1 -1 -1 -0 -1
5 5 4 4 3 3 2 2 2 2 1 1 1 1 1 1 1 1 0 0 2 0 -0 -0 -0 -0 -0 -0 -0 -1 -0 -0 -1
4 4 4 3 3 3 3 2 2 2 2 2 1 1 1 1 1 1 1 1 2 -0 1 -0 -0 -0 -0 -0 -0 -1 -0 0 -0
5 4 4 4 3 3 3 3 2 2 2 2 1 1 1 1 1 1 1 2 1 0 0 -0 -0 -0 -0 -0 -0 -0 -0 -0 -0
5 4 4 4 4 4 3 3 2 2 2 1 1 1 1 2 1 1 2 2 1 0 0 0 -0 -0 -0 -0 -0 -0 -0 -0 -0
5 5 5 4 4 4 3 3 2 2 2 1 1 1 2 2 1 1 1 1 3 2 0 0 0 0 0 -0 -0 0 -0 -0 -0
6 5 5 4 4 3 3 3 3 2 2 2 1 2 2 1 1 1 1 2 2 2 2 1 0 1 1 1 0 1 1 -0 0
5 5 4 4 4 3 3 3 2 2 2 1 2 2 2 1 1 1 1 2 2 2 2 2 1 1 1 1 0 2 1 0 -0
5 4 4 3 3 3 2 2 2 1 2 2 2 2 2 1 1 1 1 1 2 2 2 1 1 1 1 1 0 3 3 2 -0
4 3 3 3 2 2 2 2 2 2 2 2 2 2 2 2 1 2 1 2 2 1 1 1 1 1 1 0 0 3 4 2 1
3 3 3 3 2 2 2 2 2 2 2 2 2 2 2 1 1 1 2 2 2 1 1 1 1 1 0 1 1 4 5 2 1
3 3 3 2 2 2 2 2 2 2 2 3 2 1 1 1 1 1 1 2 1 1 1 2 2 1 1 1 1 0 5 4 0
3 3 3 2 3 3 2 2 2 3 3 2 1 1 1 2 1 2 2 3 2 1 1 2 2 2 2 1 0 4 5 5 5
4 4 3 3 3 3 2 2 2 3 2 1 2 2 2 2 1 1 2 3 2 2 2 2 2 3 2 2 1 0 6 7 6
4 4 3 3 3 3 3 2 2 2 2 1 2 2 2 2 2 2 1 1 1 2 2 2 3 2 2 2 2 1 1 1 3
4 4 3 3 3 3 3 2 2 1 1 1 2 2 2 2 2 2 2 3 2 1 1 3 2 2 2 2 2 1 3 3 1
4 4 3 3 3 3 3 2 2 2 1 1 2 2 2 2 2 2 2 3 5 12 11 12 12 11 4 3 8 10 10 9 10
4 3 3 3 3 3 2 2 2 1 1 1 1 2 2 2 2 2 2 2 2 3 7 12 13 12 10 8 10 11 11 11 11